[[{"header":{"parameterUnit":"m.s-1","parameterCategory":1,"la1":30.2991,"la2":30.254,"lo1":-89.0895,"lo2":-89.0444,"dy":0.0017,"dx":0.0017,"nx":28,"ny":28,"refTime":"2024-05-30T09:00:00:Z","depth":0,"parameterNumber":2,"parameterNumberName":"U-component_of_WINDS"},"data":[0,0,0,0,0,0,0,0,0,0,0,0,0,0,0,0,0,0,0,0,0,0,0,0,0,0,0,0,0,0,0,0,0,0,0,0,0,0,0,0,0,0,0,0,0,0,0,0,0,0,0,0,0,0,0,0,0,0,-1.3692,-1.3691,0,-1.3656,-1.3655,-1.3655,-1.3544,-1.3541,-1.3539,-1.3537,-1.3505,-1.3506,-1.3508,0,0,0,0,0,0,0,0,0,0,0,0,0,-1.3669,-1.367,-1.3692,-1.3691,-1.3691,-1.3656,-1.3655,-1.3655,-1.3544,-1.3541,-1.3538,-1.3536,-1.3504,-1.3506,-1.3508,0,0,0,0,0,0,0,0,0,0,0,0,0,-1.3661,-1.3671,-1.3692,-1.3631,-1.3626,-1.3656,-1.3655,-1.3655,-1.3545,-1.3541,-1.3538,-1.3534,-1.3504,-1.3506,-1.3508,-1.3595,0,0,-1.3515,-1.3516,0,0,0,0,0,0,0,0,-1.3661,-1.3662,-1.3641,-1.3636,-1.3629,-1.36,-1.3635,-1.3635,-1.3546,-1.3576,-1.3537,-1.3532,-1.354,-1.3539,-1.354,-1.3594,-1.3593,-1.3515,-1.3516,-1.3517,-1.3518,0,0,0,0,0,0,0,-1.3662,-1.3663,-1.3678,-1.3641,-1.3634,-1.3607,-1.3602,-1.3635,-1.3579,-1.3573,-1.3565,-1.3562,-1.3536,-1.3539,-1.3539,-1.3592,-1.3515,-1.3517,-1.3518,-1.3519,-1.3714,-1.3717,0,0,0,0,0,0,-1.3671,-1.3664,-1.3679,-1.3676,-1.3636,-1.3611,-1.3605,-1.3613,-1.3578,-1.357,-1.3565,-1.3557,-1.3537,-1.3536,-1.3537,-1.3635,-1.3517,-1.3519,-1.352,-1.371,-1.3714,-1.3719,0,0,0,0,0,0,-1.3671,-1.3673,-1.368,-1.3668,-1.3667,-1.3615,-1.3626,-1.3615,-1.3617,-1.3572,-1.3562,-1.3577,-1.3534,-1.3534,-1.3581,-1.3633,-1.352,-1.3522,-1.3705,-1.3711,-1.3716,-1.3834,0,0,0,0,0,0,-1.3671,-1.3674,-1.3706,-1.3669,-1.3668,-1.3724,-1.3629,-1.3617,-1.362,-1.3609,-1.3581,-1.3573,-1.3531,-1.3578,-1.3583,-1.3634,-1.3524,-1.37,-1.3708,-1.3715,-1.3825,-1.3843,-1.3858,0,0,0,0,0,-1.367,-1.3742,-1.3708,-1.371,-1.3706,-1.3727,-1.3726,-1.3674,-1.3625,-1.3657,-1.3628,-1.3574,-1.3627,-1.3584,-1.3589,-1.3641,-1.3697,-1.3706,-1.3714,-1.3818,-1.384,-1.3858,0,0,0,0,0,0,-1.3788,-1.3736,-1.3698,-1.376,-1.3748,-1.3708,-1.3747,-1.3699,-1.3703,-1.3693,-1.363,-1.3625,-1.368,-1.3665,-1.3619,-1.3723,-1.3653,-1.3663,-1.373,-1.375,-1.3767,-1.3769,-1.3526,0,0,0,0,0,-1.382,-1.384,-1.3794,-1.3853,-1.3849,-1.3799,-1.3806,-1.3767,-1.3754,-1.3749,-1.3723,-1.3714,-1.3728,-1.3738,-1.3749,-1.3823,-1.3815,-1.3861,-1.3878,-1.3891,-1.3901,-1.3937,-1.3957,-1.3747,-1.3747,-1.3747,0,0,-1.3889,-1.3863,-1.388,-1.3876,-1.3863,-1.3885,-1.3796,-1.3824,-1.384,-1.3754,-1.3795,-1.3777,-1.3761,-1.3822,-1.3847,-1.3811,-1.3957,-1.3903,-1.3914,-1.3915,-1.3948,-1.3968,-1.3986,-1.3753,-1.3752,-1.3751,0,0,-1.4025,-1.4008,-1.4054,-1.4042,-1.4021,-1.3987,-1.3999,-1.3965,-1.3949,-1.3989,-1.3924,-1.3943,-1.3969,-1.396,-1.396,-1.4091,-1.4041,-1.4096,-1.4183,-1.4219,-1.4236,-1.425,-1.4296,-1.4313,-1.4106,-1.4106,-1.4106,0,-1.4113,-1.4142,-1.4084,-1.4115,-1.4115,-1.4036,-1.4082,-1.4074,-1.406,-1.4062,-1.4022,-1.4051,-1.4036,-1.4092,-1.4123,-1.4126,-1.4137,-1.4099,-1.4238,-1.4252,-1.4264,-1.4307,-1.4324,-1.4113,-1.4112,-1.4111,-1.4111,0,-1.4251,-1.4273,-1.4313,-1.4298,-1.4303,-1.4342,-1.429,-1.4303,-1.4263,-1.4234,-1.4276,-1.4254,-1.4258,-1.4269,-1.4232,-1.432,-1.4297,-1.4249,-1.4177,-1.4292,-1.4331,-1.4347,-1.4123,-1.412,-1.4118,-1.4116,0,0,-1.4461,-1.4411,-1.4427,-1.4418,-1.439,-1.4406,-1.4442,-1.4443,-1.4455,-1.4448,-1.4476,-1.4499,-1.4452,-1.4451,-1.4413,-1.4445,-1.4548,-1.4391,-1.439,-1.442,-1.4643,-1.4679,-1.4699,-1.4515,-1.4518,-1.4521,-1.4644,0,-1.4588,-1.4643,-1.4591,-1.4658,-1.4677,-1.4601,-1.4632,-1.4618,-1.4592,-1.4605,-1.4576,-1.4593,-1.4531,-1.453,-1.4558,-1.453,-1.4592,-1.452,-1.4541,-1.4543,-1.4546,-1.472,-1.4758,-1.4875,-1.4659,-1.4661,-1.4663,0,-1.4744,-1.4741,-1.4809,-1.4774,-1.478,-1.4808,-1.4805,-1.4818,-1.4802,-1.478,-1.4778,-1.473,-1.4763,-1.4694,-1.4738,-1.4691,-1.4696,-1.4684,-1.4687,-1.4686,-1.4609,-1.4723,-1.4912,-1.4929,-1.4687,-1.4685,-1.4683,0,-1.4888,-1.4901,-1.4943,-1.4938,-1.4899,-1.4921,-1.4906,-1.4885,-1.4889,-1.4887,-1.4889,-1.4892,-1.4893,-1.4897,-1.4851,-1.4805,-1.4902,-1.4829,-1.4885,-1.4886,-1.4908,-1.4907,-1.5099,-1.4914,-1.4914,-1.4913,-1.4913,0,-1.5035,-1.5079,-1.5006,-1.5032,-1.5079,-1.502,-1.5068,-1.5046,-1.5028,-1.5048,-1.4985,-1.5006,-1.4944,-1.4959,-1.4923,-1.4965,-1.4967,-1.4951,-1.4941,-1.4956,-1.4958,-1.4958,-1.4948,-1.4918,-1.4917,-1.4916,-1.4915,0,-1.5204,-1.5157,-1.5197,-1.5156,-1.5147,-1.5183,-1.5148,-1.5171,-1.514,-1.5167,-1.517,-1.5121,-1.5135,-1.5089,-1.5097,-1.5073,-1.5134,-1.5111,-1.5139,-1.5132,-1.519,-1.5185,-1.5388,-1.5412,-1.5213,-1.5215,-1.5217,0,-1.53,-1.5332,-1.5293,-1.5301,-1.5289,-1.5303,-1.5306,-1.5249,-1.5255,-1.5237,-1.5262,-1.527,-1.5273,-1.5299,-1.5266,-1.5271,-1.5247,-1.5318,-1.5248,-1.5261,-1.5247,-1.5245,-1.5247,-1.5333,-1.5335,-1.5337,-1.5339,0,-1.5476,-1.545,-1.5456,-1.5453,-1.5458,-1.5454,-1.5445,-1.5456,-1.5394,-1.5404,-1.5416,-1.5419,-1.5425,-1.5434,-1.5431,-1.5417,-1.5368,-1.5361,-1.5374,-1.539,-1.5404,-1.5395,-1.5178,-1.5357,-1.5355,-1.5354,-1.5353,-1.5352,-1.561,-1.5634,-1.561,-1.5618,-1.5605,-1.5598,-1.5616,-1.5586,-1.5595,-1.5594,-1.556,-1.5579,-1.5561,-1.5552,-1.5543,-1.5557,-1.5524,-1.5544,-1.5548,-1.5554,-1.5563,-1.5402,-1.5557,-1.5556,-1.5556,-1.5555,-1.5555,0,-1.5781,-1.5761,-1.5769,-1.5758,-1.5764,-1.5715,-1.5703,-1.5712,-1.5729,-1.5715,-1.5719,-1.5732,-1.574,-1.5707,-1.571,-1.5729,-1.5706,-1.5731,-1.5729,-1.5726,-1.5593,-1.558,-1.5749,-1.5749,-1.5749,-1.5749,-1.5749,-1.5749,-1.587,-1.5907,-1.5879,-1.591,-1.589,-1.5906,-1.5903,-1.5897,-1.5885,-1.5902,-1.5908,-1.5885,-1.5863,-1.5864,-1.587,-1.586,-1.5864,-1.5897,-1.5879,-1.5755,-1.5736,-1.5718,-1.5706,-1.5898,-1.5899,-1.6011,-1.6012,-1.6013]},{"header":{"parameterUnit":"m.s-1","parameterCategory":1,"la1":30.2991,"la2":30.254,"lo1":-89.0895,"lo2":-89.0444,"dy":0.0017,"dx":0.0017,"nx":28,"ny":28,"refTime":"2024-05-30T09:00:00:Z","depth":0,"parameterNumber":3,"parameterNumberName":"V-component_of_WINDS"},"data":[0,0,0,0,0,0,0,0,0,0,0,0,0,0,0,0,0,0,0,0,0,0,0,0,0,0,0,0,0,0,0,0,0,0,0,0,0,0,0,0,0,0,0,0,0,0,0,0,0,0,0,0,0,0,0,0,0,0,-0.4439,-0.444,0,-0.4581,-0.4583,-0.4584,-0.4711,-0.4712,-0.4714,-0.4715,-0.486,-0.4862,-0.4865,0,0,0,0,0,0,0,0,0,0,0,0,0,-0.4274,-0.4276,-0.4438,-0.444,-0.4442,-0.4581,-0.4583,-0.4585,-0.471,-0.4712,-0.4714,-0.4716,-0.4859,-0.4862,-0.4865,0,0,0,0,0,0,0,0,0,0,0,0,0,-0.4374,-0.4277,-0.4438,-0.4521,-0.453,-0.458,-0.4583,-0.4585,-0.471,-0.4712,-0.4714,-0.4716,-0.4858,-0.4862,-0.4865,-0.4844,0,0,-0.4877,-0.4878,0,0,0,0,0,0,0,0,-0.4368,-0.438,-0.4507,-0.4516,-0.4526,-0.463,-0.4578,-0.4672,-0.4709,-0.4642,-0.4715,-0.4717,-0.4782,-0.4792,-0.4814,-0.4851,-0.4857,-0.4877,-0.4879,-0.4881,-0.4882,0,0,0,0,0,0,0,-0.4361,-0.4374,-0.4495,-0.4509,-0.452,-0.4551,-0.4568,-0.4596,-0.4697,-0.4648,-0.4657,-0.4672,-0.4787,-0.481,-0.4818,-0.4859,-0.4877,-0.488,-0.4882,-0.4884,-0.4885,-0.4883,0,0,0,0,0,0,-0.4341,-0.4368,-0.449,-0.4499,-0.4451,-0.4552,-0.4571,-0.4595,-0.4698,-0.4715,-0.467,-0.4678,-0.4802,-0.4813,-0.4823,-0.4805,-0.4881,-0.4884,-0.4886,-0.4887,-0.4884,-0.4882,0,0,0,0,0,0,-0.4337,-0.4351,-0.4485,-0.4436,-0.4455,-0.4553,-0.4578,-0.4596,-0.4619,-0.4715,-0.4733,-0.4675,-0.4804,-0.4818,-0.4838,-0.4811,-0.4886,-0.4889,-0.489,-0.4886,-0.4883,-0.4766,0,0,0,0,0,0,-0.4332,-0.4349,-0.4342,-0.4435,-0.4458,-0.4497,-0.4577,-0.4597,-0.4625,-0.4636,-0.4724,-0.4741,-0.4807,-0.4831,-0.4841,-0.4818,-0.4892,-0.4892,-0.4888,-0.4884,-0.4773,-0.476,-0.4748,0,0,0,0,0,-0.4326,-0.4304,-0.4341,-0.4355,-0.4451,-0.4495,-0.4508,-0.4585,-0.4623,-0.4616,-0.4678,-0.4738,-0.4813,-0.4832,-0.4845,-0.4822,-0.4894,-0.4889,-0.4884,-0.4779,-0.4762,-0.4748,0,0,0,0,0,0,-0.4206,-0.4318,-0.436,-0.4368,-0.4421,-0.4516,-0.4511,-0.4566,-0.4609,-0.4617,-0.4711,-0.473,-0.4739,-0.4783,-0.4803,-0.4806,-0.4862,-0.4859,-0.4777,-0.4762,-0.475,-0.4739,-0.4895,0,0,0,0,0,-0.418,-0.4206,-0.4303,-0.43,-0.4324,-0.4412,-0.4435,-0.4489,-0.4548,-0.4571,-0.4634,-0.4688,-0.4724,-0.4746,-0.4784,-0.478,-0.48,-0.477,-0.4758,-0.4747,-0.4743,-0.4743,-0.473,-0.4866,-0.4866,-0.4866,0,0,-0.4127,-0.4192,-0.4203,-0.4278,-0.4325,-0.435,-0.4431,-0.4454,-0.4473,-0.4575,-0.4597,-0.4644,-0.4711,-0.4718,-0.4725,-0.4755,-0.471,-0.4741,-0.4731,-0.4734,-0.4736,-0.4724,-0.4712,-0.4862,-0.4863,-0.4863,0,0,-0.4044,-0.4096,-0.4099,-0.4144,-0.4215,-0.4274,-0.4274,-0.4361,-0.4397,-0.442,-0.4497,-0.4521,-0.4581,-0.4624,-0.4655,-0.4586,-0.4642,-0.4596,-0.453,-0.4528,-0.4518,-0.4509,-0.4483,-0.4473,-0.4592,-0.4591,-0.4591,0,-0.397,-0.401,-0.4093,-0.4111,-0.4141,-0.4234,-0.4237,-0.4278,-0.4357,-0.4375,-0.4408,-0.4485,-0.4536,-0.4554,-0.4537,-0.4559,-0.4562,-0.4586,-0.4513,-0.4504,-0.4497,-0.4474,-0.4464,-0.4585,-0.4586,-0.4587,-0.4587,0,-0.3915,-0.3941,-0.3935,-0.4009,-0.4038,-0.4048,-0.4132,-0.4152,-0.4204,-0.4259,-0.4281,-0.4346,-0.4398,-0.4407,-0.4458,-0.4431,-0.4448,-0.4495,-0.4553,-0.4477,-0.4456,-0.4448,-0.4576,-0.4579,-0.458,-0.4582,0,0,-0.376,-0.3879,-0.3875,-0.3909,-0.3993,-0.4015,-0.4029,-0.4081,-0.4095,-0.4146,-0.416,-0.4207,-0.4252,-0.4285,-0.4342,-0.4341,-0.4281,-0.4389,-0.4392,-0.4366,-0.4254,-0.4217,-0.4205,-0.4319,-0.4318,-0.4316,-0.4248,0,-0.369,-0.3721,-0.3795,-0.3802,-0.3827,-0.3915,-0.3927,-0.398,-0.4031,-0.4059,-0.4116,-0.4148,-0.4204,-0.4225,-0.4228,-0.4287,-0.4259,-0.4294,-0.4331,-0.4331,-0.4311,-0.4195,-0.4157,-0.4089,-0.4241,-0.424,-0.4239,0,-0.3613,-0.3657,-0.3667,-0.3748,-0.3761,-0.3771,-0.3823,-0.3849,-0.391,-0.3947,-0.3984,-0.4047,-0.4065,-0.4118,-0.4145,-0.4166,-0.4186,-0.4217,-0.4216,-0.4222,-0.428,-0.4197,-0.407,-0.4059,-0.4227,-0.4228,-0.4229,0,-0.3497,-0.356,-0.3574,-0.36,-0.3696,-0.37,-0.374,-0.3804,-0.3829,-0.3874,-0.3892,-0.3938,-0.3964,-0.3998,-0.4071,-0.4103,-0.4088,-0.4148,-0.4119,-0.4117,-0.4111,-0.411,-0.3984,-0.4125,-0.4125,-0.4125,-0.4125,0,-0.3411,-0.3413,-0.3523,-0.3531,-0.3536,-0.3621,-0.3623,-0.3671,-0.3726,-0.3744,-0.3824,-0.3839,-0.3935,-0.3962,-0.4019,-0.4031,-0.4042,-0.4072,-0.4087,-0.4064,-0.406,-0.4078,-0.4084,-0.4123,-0.4123,-0.4124,-0.4124,0,-0.3283,-0.3357,-0.3377,-0.3466,-0.3488,-0.3487,-0.3563,-0.3574,-0.3629,-0.3651,-0.3661,-0.3748,-0.3783,-0.3859,-0.3915,-0.3954,-0.3951,-0.3979,-0.393,-0.3939,-0.3905,-0.3907,-0.3786,-0.3774,-0.3922,-0.392,-0.3919,0,-0.3222,-0.3226,-0.3314,-0.3332,-0.3369,-0.3397,-0.3423,-0.3506,-0.353,-0.3599,-0.3601,-0.3642,-0.3679,-0.3731,-0.3798,-0.3841,-0.387,-0.3824,-0.3877,-0.3853,-0.3868,-0.3866,-0.3866,-0.3812,-0.381,-0.3808,-0.3807,0,-0.3107,-0.3143,-0.3178,-0.3224,-0.3253,-0.3294,-0.3339,-0.3349,-0.3443,-0.3466,-0.3502,-0.3531,-0.3588,-0.3627,-0.3679,-0.372,-0.3778,-0.379,-0.3785,-0.3762,-0.3733,-0.3747,-0.3897,-0.3792,-0.3794,-0.3795,-0.3796,-0.3796,-0.3011,-0.3017,-0.308,-0.3115,-0.3158,-0.3198,-0.3212,-0.3268,-0.33,-0.3352,-0.34,-0.3431,-0.3491,-0.3567,-0.3604,-0.3629,-0.3659,-0.3652,-0.3651,-0.3647,-0.3637,-0.3729,-0.3639,-0.364,-0.3641,-0.3641,-0.3641,0,-0.2898,-0.2942,-0.2974,-0.3034,-0.3061,-0.3114,-0.3167,-0.3186,-0.3213,-0.3263,-0.3298,-0.3339,-0.3377,-0.3447,-0.3491,-0.3498,-0.3525,-0.3506,-0.3506,-0.3515,-0.3609,-0.3608,-0.3483,-0.3483,-0.3483,-0.3483,-0.3483,-0.3483,-0.2843,-0.2856,-0.2899,-0.2934,-0.2979,-0.301,-0.3035,-0.3072,-0.3113,-0.3155,-0.3187,-0.3232,-0.329,-0.3339,-0.3375,-0.3395,-0.3407,-0.3379,-0.3407,-0.3493,-0.3508,-0.3522,-0.3522,-0.3381,-0.3381,-0.3311,-0.331,-0.3309]}]]